Regional Weather Roundup
Issued by NWS New Orleans/Baton Rouge, LA

Home | Current Version | Previous Version | Text Only | Print | Product List | Glossary Off
Versions: 1 2 3 4 5 6 7 8 9 10 11 12 13 14 15 16 17 18 19 20 21 22 23 24 25 26 27 28 29 30 31 32 33 34 35 36 37 38 39 40 41 42 43 44 45 46 47 48 49 50

714
ASUS44 KLIX 220110
RWRLIX
NEW ORLEANS REGIONAL WEATHER ROUNDUP
NATIONAL WEATHER SERVICE NEW ORLEANS LA
700 PM CST FRI NOV 21 2014

NOTE: "FAIR" INDICATES FEW OR NO CLOUDS BELOW 12,000 FEET WITH NO
      SIGNIFICANT WEATHER AND/OR OBSTRUCTIONS TO VISIBILITY.
      SKY/WX - SKY CONDITION AND SIGNIFICANT WEATHER.
      TMP - AIR TEMPERATURE.     DP    - DEWPOINT TEMPERATURE.
      RH  - RELATIVE HUMIDITY.   PRES  - PRESSURE.
      HI  - HEAT INDEX.          WCI   - WIND CHILL INDEX.

*  THESE STATIONS ARE NOT NWS OR FAA STATIONS AND ARE NOT UNDER
   NWS QUALITY CONTROL.

LAZ038-040-048-061>063-065>067-069-220200-
SOUTHEAST LOUISIANA

CITY           SKY/WX    TMP DP  RH WIND       PRES   REMARKS
N.O. AUDUBON     N/A     61  55  81 MISG        N/A
N.O. INTL ARPT PTCLDY    60  53  77 E9        30.27R
N.O. LAKEFRONT CLEAR     59  53  80 E10       30.28R
N.O. DOWNTOWN*   N/A     61  50  67 CALM      30.28S
SLIDELL        CLEAR     58  49  72 CALM      30.28S
BATON ROUGE    CLOUDY    62  52  69 E10       30.25S
BOOTHVILLE     CLEAR     62  53  72 E9        30.26S
BELLE CHASSE   CLEAR     57  51  80 E6        30.27R
BOGALUSA*        N/A     60  43  54 SE3       30.30R
NEW ROADS*     CLOUDY    63  51  66 E8        30.26R
GONZALES*        N/A     60  55  84 E3        30.26R
HAMMOND*       CLEAR     61  50  67 SE6       30.28F
HOUMA*         CLEAR     58  50  75 E7        30.25S
PORT FOURCHON* PTCLDY    64  54  68 E13       30.27S

$$

MSZ070-080>082-220200-
SOUTHERN MISSISSIPPI

CITY           SKY/WX    TMP DP  RH WIND       PRES   REMARKS
MCCOMB         PTCLDY    59  43  55 S8        30.27R
GULFPORT       CLEAR     56  49  77 CALM      30.29R
BILOXI         CLEAR     57  50  76 E3        30.29S
PASCAGOULA     CLEAR     47  45  93 CALM      30.30S
STENNIS ARPT*  CLEAR     55  46  71 CALM      30.29S

$$

COASTAL OBSERVATIONS
LAKE AND NEARSHORE STATIONS

STATION/POSITION TIME  TEMP    WIND        PRES    WAVE
                       AIR SEA DIR/SP/G            HT/PER
                 (UTC) (F)     (DEG/KT/KT) (MB)    (FT/S)
PASCAGOULA       0100   60      70/  9/ 11 1025.2
WAVELAND YACHT   0100   59      60/  3/  5 1024.8
GRAND ISLE       0100   63 60   90/  9/ 13 1024.7
SOUTHWEST PASS   0100   67 73              1024.3
NEW CANAL        0100   60 54   80/  4/  7 1025.5
SHELL BEACH      0100   57 52   70/ 10/ 10 1024.9

OFFSHORE STATIONS

STATION/POSITION TIME  TEMP    WIND        PRES    WAVE
                       AIR SEA DIR/SP/G            HT/PER
                 (UTC) (F)     (DEG/KT/KT) (MB)    (FT/S)
64 S DAUPHIN ISL 0014   67 72   90/ 17/ 21 1025.4    6/ 7

$$




USA.gov is the U.S. government's official web portal to all federal, state and local government web resources and services.